Presque Isle, ME

1:48 PM EST on December 08, 2016 (GMT -0500)
Northern Maine Regional At Presque Isle

Weather History for KPQI - March, 2013

Change the Weather History Date:

Friday, March 29, 2013

  Actual Average Record
Temperature  
Mean Temperature 36 °F -  
Max Temperature 46 °F 42 °F 65 °F (1945)
Min Temperature 26 °F 24 °F -2 °F (1939)
Degree Days  
Heating Degree Days 29    
Moisture  
Dew Point 23 °F    
Average Humidity 63    
Maximum Humidity 93    
Minimum Humidity 34    
Precipitation  
Precipitation 0.05 in - - ()
Sea Level Pressure  
Sea Level Pressure 29.83 in    
Wind  
Wind Speed - (North)    
Max Wind Speed -    
Max Gust Speed -    
Visibility 10 miles    
Events      
Averages and records for this station are not official NWS values.
T = Trace of Precipitation, MM = Missing Value Source: NWS Daily Summary

Daily Weather History Graph

Daily Weather History Graph

Search for Another Location

Airport or City:

Trip Planner

Search our weather history database for the weather conditions in past years. The results will help you decide how hot, cold, wet, or windy it might be!

Date:

Astronomy

Mar. 29, 2013 Rise Set
Actual Time 6:17 AM EDT 6:57 PM EDT
Civil Twilight 5:46 AM EDT 7:28 PM EDT
Nautical Twilight 5:10 AM EDT 8:04 PM EDT
Astronomical Twilight 4:32 AM EDT 8:42 PM EDT
Moon 10:06 PM EDT (3/29) 7:12 AM EDT (3/29)
Length of Visible Light 13h 41m
Length of Day
12h 40m
Waning Gibbous, 93% of the Moon is Illuminated
Mar 29
Waning Gibbous
Apr 3
Last Quarter
Apr 10
New
Apr 18
First Quarter
Apr 25
Full

Hourly Weather History & Observations

Time (EDT) Temp. Dew Point Humidity Pressure Visibility Wind Dir Wind Speed Gust Speed Precip Events Conditions
12:15 AM 33.8 °F 26.6 °F 75% 29.82 in 10.0 mi North - - N/A   Scattered Clouds
12:35 AM 33.8 °F 26.6 °F 75% 29.82 in 10.0 mi North - - N/A   Mostly Cloudy
12:55 AM 32.0 °F 26.6 °F 80% 29.82 in - North - - N/A   Overcast
1:35 AM 30.2 °F 26.6 °F 86% 29.82 in - North - - N/A   Overcast
1:55 AM 30.2 °F 26.6 °F 86% 29.82 in - North - - N/A   Overcast
2:15 AM 30.2 °F 26.6 °F 86% 29.82 in - North - - N/A   Mostly Cloudy
2:35 AM 30.2 °F 24.8 °F 80% 29.82 in - North - - N/A   Scattered Clouds
2:55 AM 30.2 °F 26.6 °F 86% 29.82 in - North - - N/A   Unknown
3:15 AM 30.2 °F 26.6 °F 86% 29.82 in 10.0 mi North - - N/A   Overcast
3:35 AM 30.2 °F 26.6 °F 86% 29.82 in - North - - N/A   Unknown
3:55 AM 30.2 °F 26.6 °F 86% 29.82 in - North - - N/A   Overcast
4:15 AM 30.2 °F 26.6 °F 86% 29.82 in - North - - N/A   Overcast
4:35 AM 30.2 °F 26.6 °F 86% 29.82 in - North - - N/A   Overcast
4:55 AM 30.2 °F 26.6 °F 86% 29.82 in - North - - N/A   Overcast
5:15 AM 30.2 °F 26.6 °F 86% 29.82 in - North - - N/A   Unknown
5:35 AM 28.4 °F 26.6 °F 93% 29.82 in - North - - N/A   Unknown
5:55 AM 30.2 °F 26.6 °F 86% 29.82 in - North - - N/A   Overcast
6:15 AM 30.2 °F 26.6 °F 86% 29.83 in 10.0 mi North - - N/A   Overcast
6:35 AM 30.2 °F 26.6 °F 86% 29.83 in - North - - N/A   Unknown
6:55 AM 30.2 °F 26.6 °F 86% 29.83 in - North - - N/A   Overcast
7:15 AM 30.2 °F 26.6 °F 86% 29.84 in - North - - N/A   Overcast
7:35 AM 30.2 °F 28.4 °F 93% 29.84 in - North - - N/A   Overcast
7:55 AM 32.0 °F 28.4 °F 87% 29.84 in 10.0 mi North - - N/A   Overcast
8:15 AM 33.8 °F 28.4 °F 81% 29.84 in 10.0 mi North - - N/A   Overcast
8:35 AM 33.8 °F 28.4 °F 81% 29.85 in 10.0 mi North - - N/A   Overcast
8:55 AM 33.8 °F 30.2 °F 87% 29.85 in 10.0 mi North - - N/A   Overcast
9:15 AM 35.6 °F 30.2 °F 81% 29.85 in 10.0 mi North - - N/A   Overcast
9:35 AM 35.6 °F 30.2 °F 81% 29.85 in 10.0 mi North - - N/A   Overcast
9:55 AM 37.4 °F 30.2 °F 75% 29.86 in 10.0 mi North - - N/A   Overcast
10:35 AM - - N/A% 29.85 in 10.0 mi North - - N/A   Unknown
10:55 AM - - N/A% 29.85 in 10.0 mi North - - N/A   Partly Cloudy
11:15 AM 41.0 °F 28.4 °F 61% 29.86 in 10.0 mi North - - N/A   Clear
11:35 AM 42.8 °F 28.4 °F 57% 29.85 in 10.0 mi North - - 0.05 in   Clear
11:55 AM 42.8 °F 28.4 °F 57% 29.84 in 10.0 mi North - - 0.05 in   Partly Cloudy
12:15 PM 42.8 °F 26.6 °F 53% 29.84 in 10.0 mi North - - N/A   Mostly Cloudy
12:35 PM 42.8 °F 26.6 °F 53% 29.83 in 10.0 mi North - - N/A   Scattered Clouds
12:55 PM 44.6 °F 26.6 °F 49% 29.82 in 10.0 mi North - - N/A   Partly Cloudy
1:15 PM 44.6 °F 24.8 °F 46% 29.82 in 10.0 mi North - - N/A   Partly Cloudy
1:35 PM 44.6 °F 21.2 °F 39% 29.81 in 10.0 mi North - - N/A   Partly Cloudy
1:55 PM 46.4 °F 19.4 °F 34% 29.81 in 10.0 mi North - - N/A   Scattered Clouds
2:15 PM 46.4 °F 19.4 °F 34% 29.80 in 10.0 mi North - - N/A   Partly Cloudy
2:35 PM 46.4 °F 19.4 °F 34% 29.80 in 10.0 mi North - - N/A   Clear
2:55 PM 46.4 °F 19.4 °F 34% 29.80 in 10.0 mi North - - N/A   Clear
3:15 PM 46.4 °F 19.4 °F 34% 29.80 in 10.0 mi North - - N/A   Clear
3:35 PM 46.4 °F 19.4 °F 34% 29.80 in 10.0 mi North - - N/A   Partly Cloudy
3:55 PM 46.4 °F 19.4 °F 34% 29.80 in 10.0 mi North - - N/A   Clear
4:15 PM 46.4 °F 19.4 °F 34% 29.80 in 10.0 mi North - - N/A   Clear
4:35 PM 44.6 °F 17.6 °F 34% 29.80 in 10.0 mi North - - N/A   Clear
4:55 PM 44.6 °F 19.4 °F 37% 29.80 in 10.0 mi North - - N/A   Clear
5:15 PM 44.6 °F 19.4 °F 37% 29.80 in 10.0 mi North - - N/A   Clear
5:35 PM 44.6 °F 17.6 °F 34% 29.81 in 10.0 mi North - - N/A   Clear
5:55 PM 44.6 °F 17.6 °F 34% 29.81 in 10.0 mi North - - N/A   Clear
6:15 PM 42.8 °F 17.6 °F 36% 29.82 in 10.0 mi North - - N/A   Clear
6:35 PM 42.8 °F 17.6 °F 36% 29.82 in 10.0 mi North - - N/A   Clear
6:55 PM 39.2 °F 17.6 °F 42% 29.83 in 10.0 mi North - - N/A   Clear
7:15 PM 39.2 °F 14.0 °F 36% 29.83 in 10.0 mi North - - N/A   Clear
7:35 PM 39.2 °F 15.8 °F 39% 29.84 in 10.0 mi North - - N/A   Clear
7:55 PM 37.4 °F 14.0 °F 38% 29.84 in 10.0 mi North - - N/A   Clear
8:15 PM 37.4 °F 15.8 °F 41% 29.85 in 10.0 mi North - - N/A   Clear
8:35 PM 37.4 °F 15.8 °F 41% 29.86 in 10.0 mi North - - N/A   Clear
8:55 PM 35.6 °F 14.0 °F 41% 29.86 in 10.0 mi North - - N/A   Clear
9:15 PM 30.2 °F 19.4 °F 64% 29.86 in 10.0 mi North - - N/A   Clear
9:35 PM 30.2 °F 17.6 °F 60% 29.87 in - North - - N/A   Clear
9:55 PM 28.4 °F 15.8 °F 59% 29.87 in - North - - N/A   Clear
10:15 PM 28.4 °F 17.6 °F 64% 29.87 in 10.0 mi North - - N/A   Clear
10:35 PM 28.4 °F 19.4 °F 69% 29.87 in - North - - N/A   Clear
10:55 PM 28.4 °F 19.4 °F 69% 29.87 in - North - - N/A   Clear
11:15 PM 26.6 °F 17.6 °F 69% 29.87 in - North - - N/A   Clear
11:35 PM 26.6 °F 17.6 °F 69% 29.88 in - North - - N/A   Clear
11:55 PM 26.6 °F 17.6 °F 69% 29.88 in 10.0 mi North - - N/A   Clear